�������l�o���
Date,Time,MP-1(��Sv/h),MP-2(��Sv/h),MP-3(��Sv/h),MP-4(��Sv/h),MP-5(��Sv/h),MP-6(��Sv/h),MP-7(��Sv/h),MP-8(��Sv/h),����,����(m/s),���J
2023/11/13,00:00,0.517,0.768,0.489,0.967,0.696,0.323,0.560,0.527,�k��,9.7,�L
2023/11/13,00:10,0.517,0.768,0.488,0.966,0.696,0.321,0.562,0.526,�k��,9.2,�L
2023/11/13,00:20,0.517,0.766,0.490,0.967,0.696,0.321,0.561,0.527,�k��,9.2,�L
2023/11/13,00:30,0.514,0.766,0.488,0.965,0.694,0.319,0.561,0.525,�k��,8.4,�L
2023/11/13,00:40,0.516,0.766,0.488,0.963,0.695,0.321,0.561,0.525,�k��,7.3,�L
2023/11/13,00:50,0.515,0.766,0.488,0.962,0.695,0.322,0.561,0.525,�k�k��,6.4,�L
2023/11/13,01:00,0.515,0.768,0.489,0.964,0.695,0.322,0.560,0.525,�k�k��,4.6,�L
2023/11/13,01:10,0.514,0.765,0.488,0.961,0.694,0.324,0.560,0.526,�k��,8.7,�L
2023/11/13,01:20,0.517,0.767,0.490,0.963,0.694,0.323,0.562,0.528,�k�k��,6.7,�L
2023/11/13,01:30,0.516,0.768,0.491,0.961,0.692,0.322,0.561,0.526,�k�k��,6.5,�L
2023/11/13,01:40,0.517,0.768,0.491,0.962,0.693,0.321,0.561,0.527,�k��,5.6,�L
2023/11/13,01:50,0.513,0.769,0.489,0.962,0.695,0.320,0.562,0.526,�k��,5.2,�L
2023/11/13,02:00,0.513,0.765,0.486,0.962,0.694,0.318,0.560,0.525,�k��,5.8,��
2023/11/13,02:10,0.512,0.763,0.484,0.960,0.693,0.316,0.558,0.525,�k��,5.9,��
2023/11/13,02:20,0.508,0.762,0.481,0.956,0.693,0.314,0.559,0.525,�k��,5.4,��
2023/11/13,02:30,0.508,0.761,0.480,0.959,0.690,0.313,0.558,0.524,�k��,6.6,��
2023/11/13,02:40,0.506,0.759,0.478,0.958,0.690,0.312,0.557,0.524,�k�k��,6.3,��
2023/11/13,02:50,0.504,0.758,0.478,0.955,0.688,0.312,0.557,0.522,�k��,6.7,��
2023/11/13,03:00,0.506,0.759,0.478,0.955,0.689,0.312,0.557,0.522,�k�k��,8.0,��
2023/11/13,03:10,0.503,0.759,0.476,0.956,0.689,0.310,0.557,0.521,�k�k��,7.4,��
2023/11/13,03:20,0.504,0.758,0.475,0.955,0.688,0.310,0.556,0.523,�k��,6.6,��
2023/11/13,03:30,0.503,0.758,0.476,0.954,0.686,0.310,0.557,0.522,�k��,5.7,��
2023/11/13,03:40,0.502,0.756,0.476,0.956,0.686,0.309,0.558,0.522,�k��,5.6,��
2023/11/13,03:50,0.502,0.757,0.475,0.954,0.687,0.310,0.557,0.522,�k��,5.2,��
2023/11/13,04:00,0.502,0.756,0.474,0.955,0.686,0.309,0.557,0.522,�k��,5.7,��
2023/11/13,04:10,0.503,0.756,0.475,0.953,0.688,0.310,0.557,0.522,�k��,6.0,��
2023/11/13,04:20,0.504,0.757,0.474,0.955,0.686,0.309,0.557,0.521,�k��,5.7,��
2023/11/13,04:30,0.503,0.759,0.475,0.953,0.686,0.309,0.556,0.523,�k��,5.6,��
2023/11/13,04:40,0.502,0.756,0.474,0.953,0.686,0.309,0.556,0.520,�k��,6.9,��
2023/11/13,04:50,0.504,0.758,0.473,0.954,0.687,0.309,0.556,0.521,�k��,6.6,��
2023/11/13,05:00,0.501,0.758,0.476,0.954,0.687,0.309,0.556,0.521,�k��,5.0,��
2023/11/13,05:10,0.502,0.757,0.474,0.956,0.686,0.308,0.556,0.520,�k��,5.7,��
2023/11/13,05:20,0.502,0.758,0.474,0.954,0.687,0.310,0.557,0.523,�k��,5.7,��
2023/11/13,05:30,0.501,0.757,0.473,0.956,0.688,0.309,0.557,0.522,�k��,5.8,��
2023/11/13,05:40,0.502,0.757,0.474,0.954,0.688,0.309,0.557,0.522,�k��,4.7,��
2023/11/13,05:50,0.504,0.758,0.476,0.955,0.688,0.309,0.556,0.520,�k��,4.8,��
2023/11/13,06:00,0.501,0.759,0.475,0.956,0.686,0.309,0.558,0.522,�k��,5.1,��
2023/11/13,06:10,0.501,0.759,0.474,0.957,0.687,0.308,0.557,0.521,�k��,3.8,��
2023/11/13,06:20,0.502,0.757,0.475,0.957,0.688,0.308,0.557,0.519,�k��,4.4,��
2023/11/13,06:30,0.502,0.759,0.474,0.955,0.687,0.309,0.557,0.521,�k��,3.5,��
2023/11/13,06:40,0.503,0.759,0.475,0.955,0.687,0.308,0.558,0.523,�k��,3.9,��
2023/11/13,06:50,0.503,0.759,0.477,0.956,0.687,0.310,0.557,0.521,�k��,4.7,��
2023/11/13,07:00,0.504,0.759,0.475,0.958,0.688,0.309,0.557,0.519,�k�k��,5.6,��
2023/11/13,07:10,0.504,0.759,0.476,0.956,0.689,0.309,0.559,0.521,�k�k��,4.6,��
2023/11/13,07:20,0.502,0.759,0.476,0.956,0.688,0.309,0.557,0.520,�k�k��,5.7,��
2023/11/13,07:30,0.503,0.759,0.473,0.955,0.690,0.310,0.559,0.520,�k�k��,5.7,��
2023/11/13,07:40,0.503,0.760,0.475,0.956,0.689,0.310,0.558,0.522,�k��,4.1,��
2023/11/13,07:50,0.502,0.762,0.476,0.957,0.690,0.309,0.560,0.521,�k��,3.1,��
2023/11/13,08:00,0.503,0.760,0.477,0.956,0.690,0.309,0.559,0.522,�k��,2.2,��
2023/11/13,08:10,0.505,0.761,0.475,0.955,0.689,0.309,0.558,0.521,���k��,1.9,��
2023/11/13,08:20,0.504,0.758,0.476,0.956,0.688,0.310,0.559,0.522,��,1.7,��
2023/11/13,08:30,0.504,0.760,0.477,0.957,0.687,0.309,0.558,0.521,���k��,4.4,��
2023/11/13,08:40,0.504,0.759,0.476,0.955,0.688,0.309,0.558,0.523,��,6.3,��
2023/11/13,08:50,0.504,0.760,0.477,0.957,0.687,0.309,0.561,0.521,��,6.5,��
2023/11/13,09:00,0.505,0.763,0.476,0.956,0.689,0.309,0.558,0.522,��,5.2,��
2023/11/13,09:10,0.505,0.760,0.476,0.958,0.689,0.309,0.559,0.523,��,5.0,��
2023/11/13,09:20,0.505,0.762,0.478,0.960,0.689,0.310,0.559,0.522,��,5.0,��
2023/11/13,09:30,0.506,0.761,0.476,0.959,0.689,0.310,0.559,0.522,��,4.3,��
2023/11/13,09:40,0.504,0.764,0.477,0.959,0.689,0.310,0.559,0.521,��,4.0,��
2023/11/13,09:50,0.503,0.762,0.476,0.962,0.692,0.310,0.559,0.523,��,4.0,��
2023/11/13,10:00,0.504,0.762,0.477,0.958,0.693,0.310,0.558,0.522,���k��,5.1,��
2023/11/13,10:10,0.505,0.763,0.476,0.961,0.689,0.310,0.557,0.523,��,4.3,��
2023/11/13,10:20,0.505,0.764,0.478,0.960,0.688,0.310,0.557,0.523,���k��,4.2,��
2023/11/13,10:30,0.504,0.763,0.478,0.961,0.691,0.309,0.558,0.523,���k��,4.8,��
2023/11/13,10:40,0.504,0.764,0.476,0.961,0.692,0.311,0.558,0.523,���k��,3.3,��
2023/11/13,10:50,0.506,0.765,0.478,0.962,0.693,0.310,0.556,0.525,���k��,4.2,��
2023/11/13,11:00,0.508,0.765,0.478,0.960,0.693,0.311,0.558,0.523,���k��,4.4,��
2023/11/13,11:10,0.506,0.765,0.478,0.960,0.693,0.310,0.558,0.524,��,3.9,��
2023/11/13,11:20,0.508,0.765,0.477,0.963,0.693,0.311,0.558,0.524,��,5.3,��
2023/11/13,11:30,0.509,0.766,0.477,0.961,0.694,0.312,0.559,0.525,�k��,3.3,��
2023/11/13,11:40,0.508,0.767,0.479,0.962,0.694,0.311,0.560,0.525,�k��,2.3,��
2023/11/13,11:50,0.508,0.763,0.479,0.961,0.694,0.311,0.558,0.523,��,0.8,��
2023/11/13,12:00,0.509,0.767,0.480,0.962,0.693,0.312,0.559,0.524,�k��,2.3,��
2023/11/13,12:10,0.509,0.766,0.482,0.963,0.696,0.311,0.560,0.524,���k��,3.7,��
2023/11/13,12:20,0.508,0.767,0.481,0.963,0.695,0.312,0.558,0.526,�k�k��,3.3,��
2023/11/13,12:30,0.508,0.767,0.480,0.961,0.695,0.310,0.559,0.525,�k,3.1,��
2023/11/13,12:40,0.509,0.766,0.481,0.964,0.695,0.312,0.560,0.524,�k,3.6,��
2023/11/13,12:50,0.510,0.768,0.481,0.963,0.695,0.313,0.559,0.525,�k�k��,4.0,�L
2023/11/13,13:00,0.512,0.765,0.482,0.963,0.696,0.312,0.559,0.526,�k�k��,3.0,��
2023/11/13,13:10,0.509,0.765,0.480,0.963,0.693,0.312,0.558,0.524,�k�k��,3.8,��
2023/11/13,13:20,0.508,0.766,0.481,0.963,0.693,0.312,0.558,0.524,�k,4.2,��
2023/11/13,13:30,0.511,0.765,0.481,0.963,0.694,0.312,0.558,0.526,�k,3.0,��
2023/11/13,13:40,0.509,0.766,0.481,0.963,0.694,0.313,0.559,0.523,�k�k��,2.6,��
2023/11/13,13:50,0.509,0.764,0.481,0.964,0.692,0.313,0.558,0.523,�k��,4.8,��
2023/11/13,14:00,0.510,0.767,0.481,0.964,0.693,0.310,0.559,0.523,�k��,2.6,��
2023/11/13,14:10,0.509,0.766,0.481,0.962,0.692,0.312,0.559,0.520,�k�k��,3.0,��
2023/11/13,14:20,0.508,0.765,0.482,0.965,0.693,0.311,0.559,0.522,�k��,2.8,��
2023/11/13,14:30,0.508,0.763,0.482,0.961,0.694,0.312,0.560,0.524,�k��,1.7,��
2023/11/13,14:40,0.508,0.763,0.480,0.963,0.694,0.312,0.560,0.525,�k�k��,2.2,��
2023/11/13,14:50,0.509,0.769,0.481,0.963,0.696,0.311,0.561,0.524,�k�k��,3.7,��
2023/11/13,15:00,0.509,0.769,0.483,0.963,0.695,0.311,0.559,0.525,�k��,2.3,��
2023/11/13,15:10,0.509,0.768,0.481,0.965,0.696,0.312,0.560,0.523,�k�k��,3.7,��
2023/11/13,15:20,0.509,0.768,0.480,0.965,0.696,0.311,0.560,0.522,�k�k��,5.5,��
2023/11/13,15:30,0.511,0.769,0.480,0.965,0.697,0.311,0.561,0.524,�k�k��,6.1,��
2023/11/13,15:40,0.512,0.768,0.480,0.962,0.696,0.312,0.560,0.524,�k�k��,5.6,��
2023/11/13,15:50,0.509,0.768,0.481,0.963,0.696,0.312,0.561,0.525,�k��,5.1,��
2023/11/13,16:00,0.509,0.770,0.482,0.964,0.695,0.311,0.560,0.524,�k��,5.6,��
2023/11/13,16:10,0.509,0.769,0.482,0.964,0.694,0.311,0.560,0.524,�k�k��,6.2,��
2023/11/13,16:20,0.510,0.768,0.481,0.965,0.695,0.310,0.562,0.524,�k��,5.0,��
2023/11/13,16:30,0.510,0.769,0.481,0.964,0.696,0.310,0.560,0.523,�k�k��,4.4,��
2023/11/13,16:40,0.509,0.769,0.481,0.963,0.696,0.311,0.561,0.521,�k��,4.2,��
2023/11/13,16:50,0.510,0.768,0.480,0.965,0.694,0.311,0.561,0.524,�k��,4.7,��
2023/11/13,17:00,0.509,0.770,0.480,0.964,0.695,0.311,0.560,0.523,�k��,4.6,��
2023/11/13,17:10,0.507,0.769,0.480,0.963,0.693,0.311,0.561,0.524,���k��,4.8,��
2023/11/13,17:20,0.509,0.768,0.482,0.964,0.696,0.311,0.561,0.523,�k��,5.2,��
2023/11/13,17:30,0.509,0.769,0.483,0.963,0.695,0.311,0.561,0.524,�k��,5.1,��
2023/11/13,17:40,0.511,0.770,0.480,0.963,0.696,0.310,0.560,0.524,�k��,5.0,��
2023/11/13,17:50,0.510,0.771,0.481,0.965,0.696,0.310,0.560,0.523,�k��,4.2,��
2023/11/13,18:00,0.509,0.769,0.482,0.965,0.696,0.310,0.562,0.523,�k��,2.8,��
2023/11/13,18:10,0.508,0.769,0.481,0.963,0.696,0.311,0.559,0.523,���k��,2.6,��
2023/11/13,18:20,0.509,0.767,0.482,0.964,0.695,0.310,0.561,0.522,���k��,4.4,��
2023/11/13,18:30,0.509,0.768,0.480,0.964,0.695,0.311,0.559,0.523,���k��,4.7,��
2023/11/13,18:40,0.510,0.770,0.481,0.965,0.696,0.311,0.561,0.522,���k��,5.6,��
2023/11/13,18:50,0.509,0.768,0.481,0.964,0.696,0.311,0.561,0.524,���k��,2.9,��
2023/11/13,19:00,0.509,0.769,0.480,0.963,0.695,0.310,0.558,0.525,���k��,2.6,��
2023/11/13,19:10,0.510,0.769,0.481,0.962,0.696,0.311,0.559,0.522,��,3.1,��
2023/11/13,19:20,0.508,0.769,0.482,0.964,0.696,0.311,0.559,0.523,��,3.2,��
2023/11/13,19:30,0.510,0.771,0.480,0.963,0.697,0.310,0.560,0.523,��,3.4,��
2023/11/13,19:40,0.510,0.769,0.480,0.965,0.696,0.311,0.560,0.523,��,3.7,��
2023/11/13,19:50,0.508,0.770,0.481,0.963,0.696,0.312,0.559,0.522,���k��,2.8,��
2023/11/13,20:00,0.509,0.767,0.481,0.964,0.694,0.310,0.561,0.522,��,2.6,��
2023/11/13,20:10,0.508,0.767,0.482,0.963,0.698,0.311,0.560,0.522,��,2.0,��
2023/11/13,20:20,0.508,0.770,0.479,0.964,0.695,0.311,0.559,0.522,��,4.0,��
2023/11/13,20:30,0.510,0.768,0.480,0.965,0.695,0.310,0.559,0.523,���쐼,3.6,��
2023/11/13,20:40,0.511,0.769,0.481,0.965,0.696,0.310,0.562,0.523,���쐼,3.4,��
2023/11/13,20:50,0.510,0.768,0.482,0.964,0.695,0.310,0.562,0.523,���쐼,2.6,��
2023/11/13,21:00,0.509,0.770,0.481,0.965,0.697,0.310,0.560,0.524,���쐼,4.3,��
2023/11/13,21:10,0.509,0.768,0.480,0.966,0.694,0.311,0.560,0.522,���쐼,4.1,��
2023/11/13,21:20,0.510,0.770,0.481,0.964,0.696,0.311,0.559,0.522,�쐼,3.1,��
2023/11/13,21:30,0.510,0.769,0.481,0.964,0.697,0.310,0.560,0.522,���쐼,3.0,��
2023/11/13,21:40,0.509,0.766,0.480,0.967,0.696,0.311,0.560,0.522,���쐼,4.6,��
2023/11/13,21:50,0.510,0.767,0.481,0.965,0.697,0.312,0.562,0.522,�쐼,3.1,��
2023/11/13,22:00,0.509,0.768,0.479,0.965,0.696,0.310,0.559,0.523,��,2.6,��
2023/11/13,22:10,0.509,0.770,0.480,0.964,0.696,0.311,0.560,0.524,��쐼,1.5,��
2023/11/13,22:20,0.509,0.768,0.482,0.964,0.696,0.310,0.559,0.522,�k��,1.2,��
2023/11/13,22:30,0.510,0.769,0.480,0.964,0.696,0.310,0.560,0.522,���쐼,0.9,��
2023/11/13,22:40,0.509,0.767,0.479,0.965,0.698,0.310,0.559,0.523,��,2.0,��
2023/11/13,22:50,0.509,0.771,0.480,0.964,0.697,0.312,0.561,0.523,��,2.5,��
2023/11/13,23:00,0.510,0.770,0.480,0.965,0.696,0.312,0.560,0.523,���k��,1.7,��
2023/11/13,23:10,0.508,0.769,0.480,0.964,0.696,0.310,0.560,0.523,���k��,2.2,��
2023/11/13,23:20,0.509,0.769,0.480,0.965,0.697,0.310,0.561,0.525,��,2.2,��
2023/11/13,23:30,0.509,0.770,0.480,0.965,0.697,0.311,0.559,0.523,���k��,4.5,��
2023/11/13,23:40,0.509,0.769,0.482,0.964,0.695,0.310,0.560,0.522,��,5.6,��
2023/11/13,23:50,0.508,0.769,0.481,0.966,0.696,0.311,0.559,0.522,��,4.7,��
